Location: Rounton
(54.4000°N, 1.3500°W)
Time: 13:46:00
(UTC+00:00)

Transit 4A - Pass Details

Date: 06 December 2021
Orbit: 864 x 981 km, 66.8° (Epoch: 18 January)

Event Time Altitude Azimuth Distance (km) Brightness Sun altitude
Rises 05:12:37 0° 312° (NW) 3,622 - -24.4°
Reaches altitude 10° 05:16:09 10° 292° (WNW) 2,693 - -23.9°
Maximum altitude 05:19:46 16° 257° (WSW) 2,290 - -23.4°
Drops below altitude 10° 05:23:25 10° 221° (SW) 2,716 - -22.9°
Exits shadow 05:25:07 - 210° (SSW) 3,125 10.4 -22.6°
Sets 05:27:02 0° 201° (SSW) 3,667 10.9 -22.3°
